[Iaude] MPEC G166: 2024 GZ3 [a=1.35,e=0.24,i=26.8,H=23.0]

mpec at cfa.harvard.edu mpec at cfa.harvard.edu
Thu Apr 11 20:37:50 EDT 2024


M.P.E.C. 2024-G166                               Issued 2024 April 12, 00:36 UT

     The Minor Planet Electronic Circulars contain information on unusual
         minor planets, routine data on comets and natural satellites,
         and occasional editorial announcements.  They are published
    on behalf of Division F of the International Astronomical Union by the
          Minor Planet Center, Smithsonian Astrophysical Observatory,
                          Cambridge, MA 02138, U.S.A.
			  
             Prepared using the Tamkin Foundation Computer Network

                              MPC at CFA.HARVARD.EDU
            URL https://www.minorplanetcenter.net/    ISSN 1523-6714

                                    2024 GZ3                                    


Observations:
     K24G03Z* C2024 04 10.49236516 09 09.999+00 35 21.00         21.01wXEG166F52
     K24G03Z  C2024 04 10.50365316 09 09.725+00 34 07.74         21.29wXEG166F52
     K24G03Z  C2024 04 10.51499816 09 09.427+00 32 53.64         21.00wXEG166F52
     K24G03Z  C2024 04 10.57830116 09 07.770+00 25 58.83         21.18GVEG166F51
     K24G03Z  C2024 04 10.57911916 09 07.750+00 25 53.78         21.03GVEG166F51
     K24G03Z 1C2024 04 11.05791 16 09 04.47 -00 27 55.7          20.1 VXEG166033
     K24G03Z 1C2024 04 11.05970 16 09 04.42 -00 28 07.9          20.3 VXEG166033
     K24G03Z 1C2024 04 11.06149 16 09 04.38 -00 28 20.3          20.2 VXEG166033
     K24G03Z 1C2024 04 11.06328 16 09 04.34 -00 28 32.6          20.3 VXEG166033
     K24G03Z 1C2024 04 11.06518 16 09 04.29 -00 28 45.6          20.5 VXEG166033
     K24G03Z |C2024 04 11.27348016 09 02.570-00 51 38.80         21.0 GVEG166807
     K24G03Z |C2024 04 11.27796016 09 02.470-00 52 09.90         21.1 GVEG166807
     K24G03Z  C2024 04 11.33868616 09 02.377-01 00 07.29         20.8 GVEG166H01
     K24G03Z  C2024 04 11.34397316 09 02.236-01 00 44.37         21.0 GVEG166H01
     K24G03Z  C2024 04 11.35632316 09 01.891-01 02 10.97         20.9 GVEG166H01
     K24G03Z  C2024 04 11.36070716 09 01.766-01 02 41.55         20.8 GVEG166H01
     K24G03Z KC2024 04 11.41864416 09 00.238-01 09 27.94         20.64GVEG166I52
     K24G03Z KC2024 04 11.41997016 09 00.212-01 09 37.01         21.04GVEG166I52
     K24G03Z KC2024 04 11.42129916 09 00.169-01 09 46.66         22.02GVEG166I52
     K24G03Z KC2024 04 11.42262916 09 00.097-01 09 56.12         20.70GVEG166I52
     K24G03Z KB2024 04 11.97741216 08 54.38 -02 16 47.4          20.7 GXEG166I93
     K24G03Z KB2024 04 11.99984216 08 53.73 -02 19 33.2          20.4 GXEG166I93

Observer details:
033 Karl Schwarzschild Observatory, Tautenburg.  Observers S. Melnikov, C.
    Hogner, F. Ludwig, M. Hartmann, B. Stecklum.  Measurer B. Stecklum.
    1.34-m f/3 Schmidt + CCD.
807 Cerro Tololo Observatory, La Serena.  Observers T. Linder, R. Holmes.
    0.61-m f/6.8 Ritchey-Chretien + CCD.
F51 Pan-STARRS 1, Haleakala.  Observers J. Herman, T. Lowe, P. Minguez, A.
    Schultz, I. Smith.  Measurers K. Chambers, T. de Boer, J. Fairlamb, H.
    Gao, M. Huber, C.-C. Lin, E. Magnier, Y. Ramanjooloo, R. Wainscoat, R.
    Weryk.  1.8-m Ritchey-Chretien + CCD.
F52 Pan-STARRS 2, Haleakala.  Observers J. Herman, T. Lowe, P. Minguez, A.
    Schultz, I. Smith.  Measurers K. Chambers, T. de Boer, J. Fairlamb, H.
    Gao, M. Huber, C.-C. Lin, E. Magnier, Y. Ramanjooloo, R. Wainscoat, R.
    Weryk.  1.8-m Ritchey-Chretien + CCD.
H01 Magdalena Ridge Observatory, Socorro.  Observers W. H. Ryan, E. V. Ryan.
    Measurer W. H. Ryan.  2.4-m f/8.9 Ritchey-Chretien + CCD.
I52 Steward Observatory, Mt. Lemmon Station.  Observers V. F. Carvajal, G. J.
    Leonard.  Measurers T. Beuden, V. F. Carvajal, D. Fay, J. B. Fazekas, D.
    C. Fuls, A. R. Gibbs, A. D. Grauer, H. Groeller, J. K. Hogan, R. A.
    Kowalski, S. M. Larson, G. J. Leonard, D. Rankin, R. L. Seaman, F. C.
    Shelly, K. W. Wierzchos.  1.0-m prime focus + CCD.
I93 St Pardon de Conques.  Observer F. Losse.  0.40-m f/3.7 reflector + CCD.

Orbital elements:
2024 GZ3                                                 Earth MOID = 0.1005 AU
Epoch 2024 Mar. 31.0 TT = JDT 2460400.5                 MPC                     
M 315.52035              (2000.0)            P               Q                  
n   0.62682517     Peri.  231.79735     -0.14326241     +0.95941784             
a   1.3521922      Node    32.59094     -0.70686865     +0.07257453             
e   0.2366535      Incl.   26.80307     -0.69268506     -0.27248916             
P   1.57           H   23.05          G   0.15           U   8                  
Residuals in seconds of arc
240410 F52  0.1-  0.2-    240411 033  0.1-  0.0     240411 I52  0.2-  0.1-
240410 F52  0.0   0.1+    240411 033  0.2-  0.0     240411 I52  0.1+  0.2+
240410 F52  0.2-  0.1+    240411 807  0.1-  0.1-    240411 I52  0.0   0.1-
240410 F51  0.0   0.2-    240411 807  0.4+  0.0     240411 I52  0.5-  0.2-
240410 F51  0.0   0.2+    240411 H01  0.0   0.1+    240411 I93  0.4+  0.1-
240411 033  0.0   0.1+    240411 H01  0.0   0.0     240411 I93  0.5-  0.1+
240411 033  0.1-  0.2+    240411 H01  0.0   0.0
240411 033  0.1-  0.0     240411 H01  0.0   0.1+

Ephemeris:
2024 GZ3                 a,e,i = 1.35, 0.24, 27                  q = 1.0322
Date    TT    R. A. (2000) Decl.     Delta      r    Elong.  Phase     V
2024 03 13    15 50 09.0 +21 50 15   0.4248  1.2342   114.9    46.9    23.4
...
2024 03 28    16 04 29.0 +15 34 29   0.2896  1.1819   123.2    44.9    22.4
...
2024 04 05    16 08 34.1 +08 35 44   0.2217  1.1553   130.0    41.6    21.7
...
2024 04 11    16 09 04.7 -00 20 36   0.1754  1.1364   136.8    37.1    21.1
2024 04 12    16 08 52.1 -02 18 51   0.1684  1.1333   138.1    36.2    20.9
2024 04 13    16 08 33.3 -04 27 28   0.1616  1.1303   139.4    35.3    20.8
...
2024 04 19    16 03 47.1 -21 41 12   0.1281  1.1128   145.9    30.4    20.1
...
2024 04 27    15 40 14.8 -55 08 10   0.1145  1.0914   135.7    40.1    20.1
...
2024 05 12    06 37 26.0 -78 16 26   0.1833  1.0589   100.4    69.8    21.9

A. U. Tomatic                (C) Copyright 2024 MPC           M.P.E.C. 2024-G166





More information about the Iaude mailing list